Location: Be?i?
(36.9044°N, 30.1006°E)
Time: 13:12:25
(UTC+00:00)

Terra - Pass Details

Date: 05 August 2024
Orbit: 691 x 695 km, 98.0° (Epoch: 09 September)

Event Time Altitude Azimuth Distance (km) Brightness Sun altitude
Exits shadow 20:14:27 23° 263° (W) 1,466 3.6 -30.4°
Maximum altitude 20:14:35 23° 265° (W) 1,465 3.6 -30.4°
Drops below altitude 10° 20:18:19 10° 317° (NW) 2,160 5.2 -30.8°
Sets 20:21:00 0° 332° (NNW) 3,081 6.3 -31.0°
